Terminal Aerodrome Forecast
Issued by NWS

Home | Current Version | Previous Version | Graphics & Text | Print | Product List | Glossary Off
Versions: 1 2 3 4 5 6 7 8 9 10 11 12 13 14 15 16 17 18 19 20 21 22 23 24 25 26 27 28 29 30 31 32 33

000
FTUS43 KDDC 291221 AAA
TAFHYS
TAF AMD
KHYS 291221Z 2912/3012 35018G24KT P6SM SKC WS015/21055KT
     FM291400 35025G34KT P6SM BKN120
     FM300100 05010KT P6SM SKC=

USA.gov is the U.S. government's official web portal to all federal, state and local government web resources and services.